Dayton, OR

1:07 PM PST on February 24, 2017 (GMT -0800)
McMinnville Municipal

Weather History for KMMV - February, 2013

Change the Weather History Date:

Sunday, February 3, 2013

  Actual Average Record
Temperature  
Mean Temperature 41 °F 42 °F  
Max Temperature 47 °F 49 °F 62 °F (1963)
Min Temperature 35 °F 35 °F 3 °F (1950)
Degree Days  
Heating Degree Days 24 23  
Month to date heating degree days 65 69  
Since 1 July heating degree days 2562 2824  
Cooling Degree Days 0 0  
Month to date cooling degree days 0 0  
Year to date cooling degree days 0 0  
Moisture  
Dew Point 39 °F    
Average Humidity 91    
Maximum Humidity 100    
Minimum Humidity 82    
Precipitation  
Precipitation 0.00 in 0.22 in 0.89 in (1938)
Month to date precipitation T 0.62  
Year to date precipitation 0.99 6.72  
Snow  
Snow 0.00 in - - ()
Month to date snowfall 0.0  
Snow Depth 0.00 in    
Sea Level Pressure  
Sea Level Pressure 30.30 in    
Wind  
Wind Speed 1 mph (North)    
Max Wind Speed 6 mph    
Max Gust Speed 7 mph    
Visibility 4 miles    
Events Fog    
T = Trace of Precipitation, MM = Missing Value Source: NWS Daily Summary

Daily Weather History Graph

Daily Weather History Graph

Search for Another Location

Airport or City:

Trip Planner

Search our weather history database for the weather conditions in past years. The results will help you decide how hot, cold, wet, or windy it might be!

Date:

Astronomy

Feb. 03, 2013 Rise Set
Actual Time 7:29 AM PST 5:23 PM PST
Civil Twilight 6:58 AM PST 5:54 PM PST
Nautical Twilight 6:23 AM PST 6:29 PM PST
Astronomical Twilight 5:49 AM PST 7:04 PM PST
Moon 1:04 AM PST (2/3) 11:02 AM PST (2/3)
Length of Visible Light 10h 55m
Length of Day
9h 53m
Waning Gibbous, 47% of the Moon is Illuminated
Feb 3
Waning Gibbous
Feb 9
New
Feb 17
First Quarter
Feb 25
Full
Mar 4
Last Quarter

Hourly Weather History & Observations

Time (PST) Temp. Windchill Dew Point Humidity Pressure Visibility Wind Dir Wind Speed Gust Speed Precip Events Conditions
12:53 AM 36.0 °F 33.3 °F 34.0 °F 93% 30.31 in 0.2 mi East 3.5 mph - N/A Fog Fog
1:53 AM 36.0 °F - 35.1 °F 97% 30.32 in 0.2 mi Calm Calm - N/A Fog Fog
2:53 AM 36.0 °F - 34.0 °F 93% 30.31 in 0.2 mi Calm Calm - N/A Fog Fog
3:53 AM 37.0 °F 34.5 °F 35.1 °F 93% 30.32 in 0.2 mi NW 3.5 mph - N/A Fog Fog
4:07 AM 37.4 °F - 35.6 °F 93% 30.31 in 0.8 mi Calm Calm - N/A   Mist
4:17 AM 37.4 °F - 35.6 °F 93% 30.30 in 2.0 mi Calm Calm - N/A   Overcast
4:27 AM 37.4 °F - 35.6 °F 93% 30.30 in 3.0 mi Calm Calm - N/A   Overcast
4:53 AM 37.0 °F - 35.1 °F 93% 30.31 in 4.0 mi Calm Calm - N/A   Overcast
5:53 AM 37.9 °F 35.5 °F 36.0 °F 93% 30.32 in 4.0 mi NNE 3.5 mph - N/A   Overcast
6:53 AM 37.9 °F - 37.0 °F 97% 30.32 in 3.0 mi Calm Calm - N/A   Overcast
7:21 AM 37.4 °F - 37.4 °F 100% 30.31 in 4.0 mi Calm Calm - N/A   Overcast
7:53 AM 39.0 °F - 37.0 °F 93% 30.33 in 4.0 mi Calm Calm - N/A   Overcast
8:29 AM 39.2 °F 35.9 °F 37.4 °F 93% 30.33 in 2.5 mi ENE 4.6 mph - N/A   Overcast
8:53 AM 39.0 °F 36.8 °F 37.0 °F 93% 30.34 in 2.0 mi North 3.5 mph - N/A   Overcast
9:40 AM 39.2 °F - 37.4 °F 93% 30.34 in 1.8 mi Calm Calm - N/A   Overcast
9:53 AM 39.9 °F - 37.9 °F 93% 30.35 in 1.5 mi Calm Calm - N/A   Overcast
10:25 AM 39.2 °F 37.0 °F 37.4 °F 93% 30.36 in 2.5 mi North 3.5 mph - N/A   Overcast
10:40 AM 39.2 °F - 37.4 °F 93% 30.35 in 1.5 mi Calm Calm - N/A   Overcast
10:53 AM 41.0 °F - 39.0 °F 93% 30.36 in 2.0 mi Calm Calm - N/A   Overcast
11:53 AM 43.0 °F - 39.9 °F 89% 30.34 in 2.0 mi Calm Calm - N/A   Overcast
12:04 PM 42.8 °F - 41.0 °F 93% 30.32 in 3.0 mi Calm Calm - N/A   Overcast
12:48 PM 44.6 °F - 41.0 °F 87% 30.30 in 4.0 mi Calm Calm - N/A   Overcast
12:53 PM 44.1 °F - 41.0 °F 89% 30.30 in 5.0 mi Calm Calm - N/A   Overcast
1:53 PM 46.0 °F - 41.0 °F 83% 30.29 in 7.0 mi Calm Calm - N/A   Overcast
2:53 PM 46.0 °F - 41.0 °F 83% 30.28 in 7.0 mi Calm Calm - N/A   Overcast
3:53 PM 46.0 °F - 42.1 °F 86% 30.29 in 6.0 mi Calm Calm - N/A   Overcast
4:18 PM 46.4 °F - 42.8 °F 87% 30.28 in 6.0 mi Calm Calm - N/A   Haze
4:53 PM 46.9 °F - 42.1 °F 83% 30.29 in 7.0 mi Calm Calm - N/A   Overcast
5:12 PM 46.4 °F - 42.8 °F 87% 30.28 in 6.0 mi Calm Calm - N/A   Overcast
5:53 PM 46.0 °F - 42.1 °F 86% 30.28 in 8.0 mi Calm Calm - N/A   Overcast
6:53 PM 44.1 °F - 42.1 °F 93% 30.28 in 5.0 mi Calm Calm - N/A   Overcast
7:53 PM 45.0 °F - 42.1 °F 90% 30.27 in 5.0 mi Calm Calm - N/A   Overcast
8:53 PM 44.1 °F - 41.0 °F 89% 30.26 in 4.0 mi Calm Calm - N/A   Overcast
9:05 PM 42.8 °F - 41.0 °F 93% 30.27 in 4.0 mi Calm Calm - N/A   Overcast
9:37 PM 44.6 °F 43.1 °F 41.0 °F 87% 30.27 in 5.0 mi NW 3.5 mph - N/A   Overcast
9:53 PM 44.1 °F - 41.0 °F 89% 30.27 in 5.0 mi Calm Calm - N/A   Overcast
10:31 PM 44.6 °F - 41.0 °F 87% 30.26 in 5.0 mi Calm Calm - N/A   Overcast
10:53 PM 43.0 °F - 41.0 °F 93% 30.26 in 4.0 mi Calm Calm - N/A   Overcast
11:51 PM 42.8 °F - 41.0 °F 93% 30.25 in 2.0 mi Calm Calm - N/A   Overcast
11:53 PM 42.1 °F - 41.0 °F 96% 30.25 in 2.0 mi Calm Calm - N/A   Overcast